GEFSSE_con_probscp_030.txt.gz
Probability
11 17 27 24 15 11 7 3 1 0 0 0 0 0 0 0 0 0 0 0 0 0 0 0 0 0 0 0 0 0 0 0 0 0 0 0 0 1 2 2 2 2 4
13 14 19 18 10 6 3 1 0 0 0 0 0 0 0 0 0 0 0 0 0 0 0 0 0 0 0 0 0 0 0 0 0 0 0 0 0 0 1 1 1 1 2
8 7 8 8 4 1 0 0 0 0 0 0 0 0 0 0 0 0 0 0 0 0 0 0 0 0 0 0 0 0 0 0 0 0 0 1 1 1 0 0 0 0 1
2 1 1 2 1 0 0 0 0 0 0 0 0 0 0 0 0 0 0 0 0 0 0 0 0 0 0 0 0 0 0 0 0 0 1 5 10 10 4 0 0 0 0
0 0 0 0 0 0 0 0 0 0 0 0 0 0 0 0 0 0 0 0 0 0 0 0 0 0 0 0 0 0 0 0 0 0 3 11 24 27 15 4 1 0 1
0 0 0 0 0 0 0 0 0 0 0 0 0 0 0 0 0 0 0 0 0 0 0 0 0 0 0 0 0 0 0 0 0 2 8 21 39 46 33 14 4 2 3
0 0 0 0 0 0 0 0 0 0 0 0 0 0 0 0 0 0 0 0 0 0 0 0 0 0 0 0 0 0 0 0 0 4 15 33 50 56 45 24 11 8 7
0 0 0 0 0 0 0 0 0 0 0 0 0 0 0 0 0 0 0 0 0 0 0 0 0 0 0 0 0 0 0 0 0 4 16 32 43 45 36 23 15 13 13
0 0 0 0 0 0 0 0 0 0 0 0 0 0 0 0 0 0 0 0 0 0 0 0 0 0 0 0 0 0 0 0 0 3 9 16 21 21 16 11 10 11 11
0 0 0 0 0 0 0 0 0 0 0 0 0 0 0 0 0 0 0 0 0 0 0 0 0 0 0 0 0 0 0 0 0 1 2 3 6 6 3 2 3 4 4
0 0 1 2 1 0 0 0 0 0 0 0 0 0 0 0 0 0 0 0 0 0 0 0 0 0 0 0 0 0 0 0 0 0 0 2 4 3 1 0 0 0 1
0 2 7 8 3 2 3 2 0 0 0 0 0 0 0 0 0 1 1 1 0 0 0 0 0 0 0 0 0 0 0 0 0 0 2 7 9 7 3 2 2 3 4
2 5 14 17 8 6 9 5 1 1 0 0 0 0 0 0 0 1 2 1 0 0 0 0 0 0 0 0 0 0 0 0 0 0 4 13 18 16 13 12 12 14 16
10 11 22 31 28 28 25 13 4 4 3 2 1 0 1 1 1 1 2 1 0 0 1 0 0 0 0 0 0 0 0 0 0 0 3 13 22 25 24 24 25 28 32
34 30 40 57 63 65 55 33 21 21 18 13 8 5 3 6 10 10 7 4 3 5 7 6 6 5 4 2 2 0 0 0 3 5 5 10 20 28 31 31 29 29 32
67 63 70 83 91 91 78 58 51 50 46 39 32 22 13 15 25 26 21 17 18 21 20 18 19 18 15 13 12 10 9 11 16 21 19 18 22 28 33 33 28 25 24
90 89 92 97 99 97 86 76 74 74 71 70 65 50 31 28 35 37 37 41 43 40 34 32 34 33 31 28 29 29 28 30 34 38 39 34 29 27 30 32 29 24 20
99 99 99 99 100 98 93 88 86 86 88 89 84 68 50 39 37 42 50 56 55 48 42 39 38 38 36 33 33 34 35 35 35 37 40 37 29 22 22 25 26 21 18
100 100 100 100 100 100 98 96 94 94 94 90 82 71 58 43 36 41 49 50 44 41 38 32 29 28 26 22 19 20 20 19 19 18 21 23 19 15 13 15 16 14 12
100 100 100 100 100 100 100 98 96 92 88 81 73 66 54 39 31 32 35 30 25 25 24 18 13 12 11 8 5 5 5 5 4 5 6 8 8 7 6 6 7 6 5
100 100 100 100 100 100 99 97 92 85 77 68 60 52 41 29 22 20 18 14 11 11 10 6 4 3 2 1 0 0 0 0 1 1 2 3 3 2 2 3 2 1 1
100 100 100 100 100 99 97 93 85 75 65 52 41 32 23 15 11 8 6 5 3 2 2 0 0 0 0 0 0 0 0 0 0 0 1 1 1 0 1 1 1 0 0
100 100 100 100 99 97 92 83 71 59 46 33 23 16 11 7 4 2 1 1 0 0 0 0 0 0 0 0 0 0 0 0 0 0 0 0 0 0 0 0 0 0 0
100 100 98 96 93 89 81 71 58 45 33 22 14 9 7 4 2 1 0 0 0 0 0 0 0 0 0 0 0 0 0 0 0 0 0 0 0 0 0 0 0 0 0
98 96 91 84 78 71 65 60 51 39 28 18 11 8 5 2 0 0 0 0 0 0 0 0 0 0 0 0 0 0 0 0 0 0 0 0 0 0 0 0 0 0 0
95 92 84 74 65 59 55 53 45 34 24 15 10 7 4 1 0 0 0 0 0 0 0 0 0 0 0 0 0 0 0 0 0 0 0 0 0 0 0 0 0 0 0

GEFSSE_con_probscp_036.txt.gz
Probability
0 6 21 34 36 31 25 20 14 8 5 4 5 10 19 30 40 43 38 28 17 6 0 0 0 0 0 0 0 0 0 0 0 1 2 2 2 1 0 0 0 0 1
1 6 17 25 25 21 17 12 7 4 3 3 3 5 10 17 24 26 22 16 10 4 0 0 0 0 0 0 0 0 0 0 0 1 1 1 1 0 0 0 0 0 1
1 4 10 14 13 10 6 3 1 0 1 1 1 1 2 4 6 7 5 3 2 1 0 0 0 0 0 0 0 0 0 0 0 0 0 0 0 0 0 0 0 0 1
0 1 3 5 5 3 1 0 0 0 0 0 0 0 0 0 0 0 0 0 0 0 0 0 0 0 0 0 0 0 0 0 0 0 0 0 0 0 0 0 0 0 0
0 0 0 1 1 0 0 0 0 0 0 0 0 0 0 0 0 0 0 0 0 0 0 0 0 0 0 0 0 0 0 0 0 0 0 0 0 0 0 0 0 0 0
0 0 0 0 0 0 0 0 0 0 0 0 0 0 0 0 0 0 0 0 0 0 0 0 0 0 0 0 1 0 0 0 0 0 0 0 0 1 1 0 0 0 0
0 0 0 0 0 0 0 0 0 0 0 0 0 0 0 0 0 0 0 0 0 0 0 0 0 0 0 0 0 0 0 0 0 0 0 0 1 3 3 2 2 2 1
0 0 0 0 0 0 0 0 0 0 0 0 0 0 0 0 0 0 0 0 0 0 0 0 0 0 0 0 0 0 0 0 0 0 0 1 4 8 7 7 8 8 7
0 0 0 0 0 0 0 0 0 0 0 0 0 0 0 0 0 0 0 0 0 0 0 0 0 0 0 0 0 0 0 0 0 0 0 2 7 12 11 10 11 11 11
0 0 0 0 0 0 0 0 0 0 0 0 0 0 0 0 0 0 0 0 0 0 0 0 0 0 0 0 0 0 0 0 0 0 0 3 9 12 11 10 10 9 9
0 0 0 0 0 0 0 0 0 0 0 0 0 0 0 0 0 0 0 0 0 0 0 0 0 0 0 0 0 0 0 0 0 0 0 4 9 11 9 9 7 5 5
1 1 1 0 1 1 0 0 0 0 0 0 0 0 0 0 0 0 0 0 0 0 0 0 0 0 0 0 0 0 0 0 0 0 1 5 9 9 7 7 5 3 2
5 4 3 2 2 2 1 0 0 0 0 0 0 0 0 0 0 0 0 0 0 0 0 0 0 0 0 0 0 0 0 0 0 0 2 9 16 15 10 6 4 5 6
12 11 10 8 6 4 2 0 0 0 0 0 0 0 0 0 0 0 0 0 0 0 0 0 0 0 0 0 0 0 0 0 0 0 4 17 31 35 28 21 18 21 26
29 27 27 24 17 11 5 2 0 0 0 0 0 0 0 0 0 0 0 0 0 0 0 0 0 0 0 0 0 0 0 0 0 0 5 21 44 56 56 49 45 47 51
52 51 51 48 38 25 15 7 3 1 0 0 0 0 0 0 0 0 0 0 0 0 0 0 0 0 0 0 0 0 0 0 0 0 2 14 38 60 68 66 62 61 62
70 70 73 71 63 49 32 18 11 9 7 4 2 1 1 2 1 1 0 0 0 0 0 0 0 0 0 0 0 0 0 0 0 0 0 4 18 39 54 60 61 59 58
82 84 87 88 83 72 55 38 31 31 28 17 8 5 6 5 4 2 1 0 0 0 0 0 0 0 0 0 0 0 0 0 0 0 0 0 4 12 26 41 49 48 45
87 88 93 95 93 87 76 63 55 53 46 29 14 10 9 7 4 2 2 1 0 0 0 0 0 0 0 0 0 0 0 0 0 0 0 0 0 1 6 17 28 29 26
84 86 93 96 96 92 87 80 71 61 47 30 16 11 9 7 4 2 2 1 0 0 0 0 0 0 0 0 0 0 0 0 0 0 0 0 0 0 0 3 8 10 10
83 86 93 96 94 91 87 81 69 53 36 22 12 7 6 4 2 1 1 0 0 0 0 0 0 0 0 0 0 0 0 0 0 0 0 0 0 0 0 0 0 1 2
87 90 95 96 93 89 81 70 55 37 21 11 6 3 2 1 1 0 0 0 0 0 0 0 0 0 0 0 0 0 0 0 0 0 0 0 0 0 0 0 0 0 0
92 95 97 95 90 83 73 57 40 24 11 4 1 0 0 0 0 0 0 0 0 0 0 0 0 0 0 0 0 0 0 0 0 0 0 0 0 0 0 0 0 0 0
96 97 95 89 80 72 61 46 31 17 7 1 0 0 0 0 0 0 0 0 0 0 0 0 0 0 0 0 0 0 0 0 0 0 0 0 0 0 0 0 0 0 0
98 95 89 79 67 58 48 35 23 12 4 1 0 0 0 0 0 0 0 0 0 0 0 0 0 0 0 0 0 0 0 0 0 0 0 0 0 0 0 0 0 0 0
96 91 82 71 59 49 39 27 16 8 3 1 0 0 0 0 0 0 0 0 0 0 0 0 0 0 0 0 0 0 0 0 0 0 0 0 0 0 0 0 0 0 0

GEFSSE_con_probscp_042.txt.gz
Probability
0 2 4 5 3 2 2 2 8 21 29 38 52 61 60 52 47 42 31 18 6 1 1 1 1 0 0 0 0 0 0 0 0 0 0 0 0 0 0 0 0 0 0
0 1 4 5 5 5 3 2 5 12 18 24 33 43 47 44 42 38 30 18 7 1 0 0 0 0 0 0 0 0 0 0 0 0 0 0 0 0 0 0 0 0 0
0 0 2 5 7 7 5 2 2 3 6 8 12 17 22 25 25 24 18 11 4 1 0 0 0 0 0 0 0 0 0 0 0 0 0 0 0 0 0 0 0 0 0
0 0 1 3 6 6 4 2 1 0 1 1 2 3 5 7 8 7 5 3 1 0 0 0 0 0 0 0 0 0 0 0 0 0 0 0 0 0 0 0 0 0 0
0 0 1 2 4 4 3 1 0 0 0 0 0 1 1 1 1 1 0 0 0 0 0 0 0 0 0 0 0 0 0 0 0 0 0 0 0 0 0 0 0 0 0
0 0 1 2 3 3 2 1 0 0 0 0 0 0 0 0 0 0 0 0 0 0 0 0 0 0 0 0 0 0 0 0 0 0 0 0 0 0 0 0 0 0 0
0 0 0 1 2 1 1 0 0 0 0 0 0 0 0 0 0 0 0 0 0 0 0 0 0 0 0 0 0 0 1 1 0 0 0 0 0 0 0 0 0 0 0
0 0 0 0 0 0 0 0 0 0 0 0 0 0 0 0 0 0 0 0 0 0 0 0 0 0 0 0 0 0 1 1 0 0 0 0 0 1 1 1 0 0 0
0 0 0 0 0 0 0 0 0 0 0 0 0 0 0 0 0 0 0 0 0 0 0 0 0 0 0 0 0 0 1 1 0 0 0 0 1 2 2 1 0 0 0
0 0 0 0 0 0 0 0 0 0 0 0 0 0 0 0 0 0 0 0 0 0 0 0 0 0 0 0 0 0 0 0 0 0 0 0 1 2 1 1 0 0 0
0 0 0 0 0 0 0 0 0 0 0 0 0 0 0 0 0 0 0 0 0 0 0 0 0 0 0 0 0 0 0 0 0 0 0 0 1 2 2 2 2 1 0
0 0 0 0 1 2 1 1 1 0 0 0 0 0 0 0 0 0 0 0 0 0 0 0 0 0 0 0 0 0 0 0 0 0 0 0 1 3 5 6 7 4 2
0 0 0 0 3 5 4 3 2 1 0 0 0 0 0 0 0 0 0 0 0 0 0 0 0 0 0 0 0 0 0 0 0 0 0 1 4 7 9 12 13 10 7
0 0 0 0 3 6 7 6 5 4 2 1 0 0 0 0 0 0 0 0 0 0 0 0 0 0 0 0 0 0 0 0 0 0 0 4 10 14 14 16 18 18 18
1 0 0 1 4 9 11 10 9 6 4 3 1 0 0 0 0 0 0 0 0 0 0 0 0 0 0 0 0 0 0 0 0 0 0 5 15 22 23 23 23 25 25
5 3 2 3 8 14 16 15 13 9 6 4 2 0 0 0 0 0 0 0 0 0 0 0 0 0 0 0 0 0 0 0 0 0 0 3 10 18 25 29 30 29 26
16 11 7 7 12 19 22 21 18 12 8 6 3 1 1 1 0 0 0 0 0 0 0 0 0 0 0 0 0 0 0 0 0 0 0 1 3 7 14 22 29 28 23
32 27 21 20 24 30 32 30 24 16 10 7 5 3 3 2 1 0 0 0 0 0 0 0 0 0 0 0 0 0 0 0 0 0 0 0 0 0 3 8 15 18 16
50 49 47 45 48 51 48 40 31 22 13 8 5 4 5 6 3 1 0 0 0 0 0 0 0 0 0 0 0 0 0 0 0 0 0 0 0 0 0 2 4 5 7
65 69 72 72 73 71 64 52 40 28 18 12 8 6 7 9 7 3 1 0 0 0 0 0 0 0 0 0 0 0 0 0 0 0 0 0 0 0 0 0 0 0 1
69 77 85 88 87 82 74 62 46 31 20 14 10 6 6 8 7 3 1 0 0 0 0 0 0 0 0 0 0 0 0 0 0 0 0 0 0 0 0 0 0 0 0
63 75 87 91 89 82 71 57 40 25 15 9 6 5 4 4 3 1 0 0 0 0 0 0 0 0 0 0 0 0 0 0 0 0 0 0 0 0 0 0 0 0 0
53 67 81 85 80 70 57 44 30 18 10 4 2 2 2 1 1 0 0 0 0 0 0 0 0 0 0 0 0 0 0 0 0 0 0 0 0 0 0 0 0 0 0
45 56 70 72 65 53 44 37 28 17 7 2 1 1 1 0 0 0 0 0 0 0 0 0 0 0 0 0 0 0 0 0 0 0 0 0 0 0 0 0 0 0 0
40 48 56 54 46 39 35 30 23 13 5 1 0 0 0 0 0 0 0 0 0 0 0 0 0 0 0 0 0 0 0 0 0 0 0 0 0 0 0 0 0 0 0
41 44 46 40 32 29 28 23 15 7 2 0 0 0 0 0 0 0 0 0 0 0 0 0 0 0 0 0 0 0 0 0 0 0 0 0 0 0 0 0 0 0 0

GEFSSE_con_probscp_048.txt.gz
Probability
0 0 0 0 0 0 0 1 4 8 9 8 7 7 6 5 3 2 2 2 1 0 0 0 0 0 0 0 0 0 0 0 0 0 0 0 0 0 0 0 0 0 0
0 0 0 0 0 0 0 1 5 11 13 12 11 11 11 9 6 4 4 3 1 0 0 0 0 0 0 0 0 0 0 0 0 0 0 0 0 0 0 0 0 0 0
0 0 0 0 0 0 0 1 5 11 14 13 12 13 12 10 8 6 4 2 0 0 0 0 0 0 0 0 0 0 0 0 0 0 0 0 0 0 0 0 0 0 0
0 0 0 0 0 0 0 1 3 6 8 8 8 9 8 6 4 4 2 0 0 0 0 0 0 0 0 0 0 0 0 0 0 0 0 0 0 0 0 0 0 0 0
0 0 0 0 0 0 0 0 1 2 2 3 4 5 4 2 1 1 1 0 0 0 0 0 0 0 0 0 0 0 0 0 0 0 0 0 0 0 0 0 0 0 0
0 0 0 0 0 0 0 0 0 0 0 0 1 3 3 1 0 0 0 0 0 0 0 0 0 0 0 0 0 0 0 0 0 0 0 0 0 0 0 0 0 0 0
0 0 0 1 1 0 0 0 0 0 0 0 0 1 2 1 0 0 0 0 0 0 0 0 0 0 0 0 0 0 0 0 0 0 0 0 0 0 0 0 0 0 0
0 0 0 1 1 0 0 0 0 0 0 0 0 0 1 1 0 0 0 0 0 0 0 0 0 0 0 0 0 0 0 0 0 0 0 0 1 0 0 0 0 0 0
0 0 0 1 1 0 0 0 0 0 0 0 0 0 0 0 0 0 0 0 0 0 0 0 0 0 0 0 0 0 0 0 0 0 0 2 3 1 0 0 0 0 0
0 0 0 0 0 0 0 0 0 0 0 0 0 0 0 0 0 0 0 0 0 0 0 0 0 0 0 0 0 0 0 0 0 0 1 3 4 2 0 0 0 0 0
0 0 0 0 0 0 0 0 0 0 0 0 0 0 0 0 0 0 1 2 1 1 0 0 0 0 0 0 0 0 0 0 0 0 1 4 4 3 2 1 0 0 1
0 0 0 0 0 0 0 0 0 0 0 0 0 0 0 0 0 0 1 2 2 1 0 0 0 0 0 0 0 0 0 0 0 0 2 4 5 4 5 4 3 3 4
0 0 0 0 0 0 0 0 0 0 0 0 0 0 0 0 0 0 1 1 1 1 0 0 0 0 0 0 0 0 0 0 0 0 2 4 6 7 9 9 8 8 10
0 0 0 0 0 0 0 0 0 0 0 0 1 1 1 1 1 1 1 1 0 0 0 0 0 0 0 0 0 0 0 0 0 0 2 4 6 9 12 13 13 13 14
0 0 0 0 1 1 2 2 2 2 2 3 3 4 5 5 4 4 5 5 3 3 3 2 1 0 0 0 0 0 0 0 0 0 1 3 5 9 13 16 16 17 17
3 2 2 2 3 5 7 7 6 6 8 9 10 11 12 11 11 12 15 17 14 12 13 9 3 0 0 0 0 0 0 0 0 0 0 1 3 5 9 13 14 15 15
12 11 9 8 10 16 19 18 15 14 17 19 20 21 20 20 24 29 32 35 33 28 25 19 9 3 1 1 1 0 0 0 0 0 0 0 1 2 3 6 8 9 9
32 31 28 26 29 36 40 37 33 33 34 33 33 34 31 30 37 46 49 53 52 42 33 25 15 8 4 3 2 1 1 0 0 0 0 0 0 0 0 1 3 4 5
58 58 57 55 56 60 62 60 56 58 55 49 48 47 43 41 46 53 58 59 55 44 33 25 17 11 9 7 5 3 1 0 0 0 0 0 0 0 0 0 1 2 3
75 77 78 78 79 80 80 79 75 72 66 59 56 53 48 45 46 48 49 44 38 33 26 19 14 11 9 7 5 3 1 0 0 0 0 0 0 0 0 0 0 0 1
79 83 86 90 93 94 93 90 84 76 66 56 51 46 40 37 35 33 29 24 21 19 16 13 10 8 5 4 3 1 0 0 0 0 0 0 0 0 0 0 0 0 0
75 81 89 94 98 99 97 92 83 72 59 48 39 32 26 23 21 19 15 13 12 11 9 7 5 4 2 1 1 0 0 0 0 0 0 0 0 0 0 0 0 0 0
73 80 88 93 97 98 95 87 76 64 50 38 29 22 16 14 14 13 11 9 7 5 3 2 1 1 0 0 0 0 0 0 0 0 0 0 0 0 0 0 0 0 0
78 82 87 90 92 92 89 82 71 58 44 31 22 15 11 9 8 7 6 5 3 1 0 0 0 0 0 0 0 0 0 0 0 0 0 0 0 0 0 0 0 0 0
80 83 85 85 83 80 76 71 63 51 37 25 15 10 6 4 3 2 2 1 1 0 0 0 0 0 0 0 0 0 0 0 0 0 0 0 0 0 0 0 0 0 0
79 81 82 80 75 70 66 61 53 43 31 19 10 6 3 1 0 0 0 0 0 0 0 0 0 0 0 0 0 0 0 0 0 0 0 0 0 0 0 0 0 0 0

GEFSSE_con_probscp_054.txt.gz
Probability
5 10 15 13 6 2 0 0 0 0 0 0 0 0 1 2 3 3 4 4 3 1 0 0 0 0 0 0 0 0 0 0 0 0 0 0 0 0 0 0 0 0 0
8 12 16 13 6 1 0 0 0 0 0 0 0 0 0 1 3 3 3 3 2 0 0 0 0 0 0 0 0 0 0 0 0 0 0 0 0 0 0 1 1 0 0
9 10 11 9 4 1 0 0 0 0 0 0 0 0 0 1 2 2 1 1 0 0 0 0 0 0 0 0 0 0 0 0 0 0 0 0 0 0 0 2 2 1 0
5 5 5 5 3 2 1 0 0 0 0 0 0 0 0 0 1 1 0 0 0 0 0 0 0 0 0 0 0 0 0 0 0 0 0 0 0 0 0 1 1 0 0
3 2 3 3 2 2 1 0 0 0 0 0 0 0 0 0 0 0 0 0 0 0 0 0 0 0 0 0 0 0 0 0 0 0 0 0 0 0 0 0 0 0 0
2 2 1 1 1 1 0 0 0 0 0 0 0 0 0 0 0 0 0 0 0 0 0 0 0 0 0 0 0 0 0 0 0 0 0 0 0 0 0 0 0 0 0
4 3 1 0 0 0 0 0 0 0 0 0 0 0 0 0 0 0 0 0 0 0 0 0 0 0 0 0 0 0 0 0 0 0 0 3 5 4 2 0 0 0 0
5 4 1 0 0 0 0 0 0 0 0 0 0 0 0 0 0 0 0 0 0 0 0 0 0 0 0 0 0 0 0 0 0 0 1 9 18 17 8 3 1 1 0
6 5 2 0 0 0 0 0 0 0 0 0 0 0 0 0 0 0 0 0 0 0 0 0 0 0 0 0 0 0 0 0 0 1 5 19 35 33 19 8 4 2 1
6 5 2 0 0 0 0 0 0 0 0 0 0 0 0 0 0 0 0 0 0 0 0 0 0 0 0 0 0 0 0 0 0 2 11 28 43 40 24 12 6 3 1
6 5 2 0 0 0 0 0 0 0 0 0 0 0 0 0 0 1 3 6 5 3 1 0 0 0 0 0 0 0 0 0 0 5 20 38 45 38 25 13 6 3 1
5 4 2 1 1 0 0 0 0 0 0 0 0 0 0 1 2 5 12 17 15 9 5 2 1 0 0 0 0 1 0 0 1 9 27 44 45 34 23 14 7 3 1
3 3 3 2 1 1 1 1 0 1 1 1 2 3 2 4 6 12 20 24 20 13 9 7 5 2 0 0 1 1 0 0 2 10 24 37 39 31 23 16 9 4 1
1 2 5 8 9 9 10 8 4 4 5 6 8 9 9 11 15 21 28 28 23 19 16 15 13 9 5 3 2 1 0 0 2 6 15 24 28 26 23 18 12 7 5
6 5 10 23 32 35 35 28 17 15 18 21 23 24 23 26 33 40 46 44 38 37 38 34 27 23 18 12 7 4 1 0 1 3 8 14 19 20 19 18 14 11 11
24 22 27 45 61 67 64 53 38 34 39 42 46 49 47 50 60 69 71 67 61 63 66 58 47 38 32 25 18 10 4 3 3 4 6 8 11 12 13 13 12 12 14
50 51 55 65 78 85 82 73 60 53 57 63 68 74 74 75 83 89 89 84 79 80 81 72 60 49 41 35 27 18 11 9 7 6 6 6 6 7 8 9 9 10 11
73 78 78 78 87 93 91 84 75 70 74 80 84 89 89 88 90 92 92 90 85 82 78 68 56 46 38 32 26 20 14 12 11 8 6 5 4 3 4 5 5 5 6
88 91 91 90 94 98 97 93 87 85 88 91 92 92 90 87 86 86 84 82 78 74 66 53 40 31 25 20 16 12 8 8 8 6 4 3 1 1 1 1 2 1 1
93 96 97 96 97 98 99 99 97 95 95 93 89 86 82 78 77 74 70 67 65 60 51 36 23 16 12 9 7 4 2 2 2 2 1 1 0 0 0 0 0 0 0
95 97 99 98 98 98 99 100 99 97 94 89 82 75 70 66 64 60 54 51 49 46 36 22 12 7 5 4 3 2 0 0 0 0 0 0 0 0 0 0 0 0 0
96 97 97 98 98 99 99 99 97 93 88 81 72 64 57 54 52 49 43 38 35 31 24 14 7 3 1 1 2 1 0 0 0 0 0 0 0 0 0 0 0 0 0
95 95 95 95 97 98 98 96 93 87 80 71 61 52 45 42 40 38 34 29 25 22 17 11 6 2 0 0 1 1 0 0 0 0 0 0 0 0 0 0 0 0 0
91 92 92 92 93 94 95 93 87 80 71 61 51 41 34 30 27 25 22 19 17 15 12 8 5 1 0 0 0 0 0 0 0 0 0 0 0 0 0 0 0 0 0
83 85 86 86 86 86 85 83 76 67 59 52 43 33 24 18 15 12 11 9 8 7 5 4 2 0 0 0 0 0 0 0 0 0 0 0 0 0 0 0 0 0 0
77 79 80 80 79 77 75 72 64 56 51 46 38 28 17 11 9 5 3 3 2 1 1 1 0 0 0 0 0 0 0 0 0 0 0 0 0 0 0 0 0 0 0